Simultaneous Nadir Overpasses (SNOs) Predictions

Prediction of SNOs between METOP-B and NPP Satellite Orbit:

Table of predicted SNOs for the next 14.0 days since TLE Epoch: 5/25/2014
Index Date (METOP-B) Time (METOP-B) Lat,Lon (METOP-B) SZA (METOP-B ) Date (NPP) Time (NPP) Lat,Lon (NPP) SZA (NPP ) Distance(km) Time Diff (sec)
1 06/04/2014 19:03:17 73.61,-111.80 51.13 06/04/2014 19:02:09 73.61,-114.33 51.24 79.54 68
2 06/04/2014 19:54:00 -73.53, 55.34 128.95 06/04/2014 19:52:51 -73.51, 53.22 128.88 66.98 69
3 06/04/2014 20:44:45 73.29,-137.86 50.83 06/04/2014 20:43:33 73.31,-139.02 50.91 36.98 72
4 06/04/2014 21:35:28 -73.21, 29.28 129.26 06/04/2014 21:34:15 -73.21, 28.52 129.21 24.48 73
5 06/04/2014 22:26:12 73.02,-163.80 50.57 06/04/2014 22:24:57 73.01,-163.73 50.57 2.44 75
6 06/04/2014 23:16:53 -73.04, 3.57 129.42 06/04/2014 23:15:41 -73.01, 3.59 129.44 3.35 72
7 06/05/2014 00:07:34 73.00, 170.82 50.54 06/05/2014 00:06:27 73.01, 170.89 50.56 2.77 67
8 06/05/2014 00:58:15 -73.02, -21.81 129.45 06/05/2014 00:57:11 -73.01, -21.79 129.44 1.19 64
9 06/05/2014 01:48:55 73.03, 145.54 50.56 06/05/2014 01:47:57 73.01, 145.52 50.56 2.12 58
10 06/05/2014 02:39:37 -73.00, -47.19 129.47 06/05/2014 02:38:41 -73.01, -47.17 129.45 1.66 56
11 06/05/2014 03:30:17 73.01, 120.16 50.54 06/05/2014 03:29:27 73.01, 120.14 50.55 0.68 50
12 06/05/2014 04:20:58 -73.03, -72.47 129.45 06/05/2014 04:20:11 -73.01, -72.54 129.46 2.98 47
13 06/05/2014 05:11:39 72.99, 94.77 50.51 06/05/2014 05:10:57 73.01, 94.77 50.54 2.79 42
14 06/05/2014 06:02:20 -73.01, -97.85 129.48 06/05/2014 06:01:41 -73.01, -97.92 129.47 2.09 39
15 06/05/2014 06:53:01 72.97, 69.39 50.48 06/05/2014 06:52:26 72.96, 69.50 50.48 3.53 35
16 06/05/2014 07:43:42 -72.99,-123.24 129.51 06/05/2014 07:43:10 -72.96,-123.18 129.53 3.28 32
17 06/05/2014 08:34:22 73.00, 44.11 50.50 06/05/2014 08:33:56 72.97, 44.12 50.47 3.72 26
18 06/05/2014 09:25:04 -72.97,-148.62 129.53 06/05/2014 09:24:40 -72.96,-148.56 129.53 2.04 24
19 06/05/2014 10:15:44 72.98, 18.73 50.48 06/05/2014 10:15:26 72.97, 18.75 50.47 1.43 18
20 06/05/2014 11:06:26 -72.95,-174.00 129.56 06/05/2014 11:06:10 </
